Вернуться в каталог

COSMOS 1640

АктивенВоенныеLEO
NORAD 15622·PAYLOAD·🇷🇺 Russia

Запущен Mar 21, 1985 с Plesetsk Cosmodrome

Loading…

Ближайшие Пролёты (ближайшие 24 часа)

TLE

СвежийSource: Space-Track

Эпоха: Sep 14, 2026, 02:13 UTC

1 15622U 85023F   26257.09285334  .00000014  00000-0  18668-3 0  9997
2 15622  74.0556 142.3849 0034191 218.2134 294.4163 12.52841992897450

Отслеживайте COSMOS 1640 в реальном времени с AllMySat

Download on the App Store